Regional Weather Roundup
Issued by NWS Albany, NY

Home | Current Version | Previous Version | Text Only | Print | Product List | Glossary On
Versions: 1 2 3 4 5 6 7 8 9 10 11 12 13 14 15 16 17 18 19 20 21 22 23 24 25 26 27
000
ASUS41 KALY 230210
RWRALY

NEW YORK STATE HOURLY WEATHER ROUNDUP
NATIONAL WEATHER SERVICE ALBANY NY
1000 PM EDT WED MAR 22 2017

NOTE: "FAIR" INDICATES FEW OR NO CLOUDS BELOW 12,000 FEET WITH NO
SIGNIFICANT WEATHER AND/OR NO OBSTRUCTIONS TO VISIBILITY.

NYZ032-033-038>043-046>054-057>066-NYZ062>081-082-084-230300-
EAST


CITY           SKY/WX    TMP DP  RH WIND       PRES   REMARKS
ALBANY         CLEAR     20  -4  34 NW16G23   30.42R WCI   6
GLENS FALLS    CLEAR     18  -5  36 N6        30.41R WCI  10
POUGHKEEPSIE   CLEAR     21  -4  33 NW9       30.40R WCI  11
NEWBURGH       CLEAR     21   1  42 NW12G23   30.40R WCI   9
MONTGOMERY     CLEAR     21  -3  35 NW9       30.41R WCI  11
WHITE PLAINS   CLEAR     23  -4  30 NW14      30.36R WCI  11
ISLIP          CLEAR     25  -2  31 N20G25    30.37R WCI  11
NEW YORK CITY  CLEAR     29   0  28 N18G26    30.42R WCI  16
CENTRAL PARK   CLEAR     26  -4  27 MISG      30.42R
$$

NYZ005>009-017-018-044>046-055-056-230300-
CENTRAL


CITY           SKY/WX    TMP DP  RH WIND       PRES   REMARKS
FULTON         CLEAR     22   4  46 W7        30.46S WCI  13
SYRACUSE       CLEAR     19   8  62 SW8       30.47R WCI   9
ROME           PTCLDY    15   1  53 NW8       30.47R WCI   4
ELMIRA         CLEAR     16   4  59 CALM      30.46R
BINGHAMTON     CLEAR     13   3  64 NW6       30.38R WCI   4
MONTICELLO     CLEAR     16  -2  45 NW14G21   30.36R WCI   1
$$

NYZ026>034-041>043-087-230300-
NORTH


CITY           SKY/WX    TMP DP  RH WIND       PRES   REMARKS
WATERTOWN      CLEAR     10   5  80 E3        30.47R
FORT DRUM      NOT AVBL
MASSENA        CLEAR     11  -2  56 S7        30.46R WCI   0
SARANAC LAKE   CLEAR      7  -7  52 CALM      30.30R
PLATTSBURGH    CLEAR     15  -5  40 W5        30.41R WCI   8
$$

NYZ001>004-010>016-019>021-085-230300-
WEST


CITY           SKY/WX    TMP DP  RH WIND       PRES   REMARKS
NIAGARA FALLS  CLEAR     24  10  55 CALM      30.52R
BUFFALO        CLEAR     24   8  50 CALM      30.51R
DUNKIRK        CLEAR     23  12  62 SW9       30.53R WCI  13
JAMESTOWN      CLEAR     19   7  58 SW8       30.44R WCI   9
WELLSVILLE     CLEAR     17   4  56 NW10      30.41R WCI   5
ROCHESTER      PTCLDY    22   7  52 W6        30.51R WCI  14
PENN YAN       CLEAR     20   4  50 W5        30.47R WCI  13
$$

             KEY
       WCI = WIND CHILL INDEX
       VSB = VISIBILITY
       HX  = HEAT INDEX
$$




USA.gov is the U.S. government's official web portal to all federal, state and local government web resources and services.